CW7710 Weather Reports


Display with metric or nautical units.
time (UTC)temp
F
wind
direction
speed
MPH
gust
MPH
rain 1hr
in
rain 24hr
in
rain mn
in
humidity
%
barometer
mb
20260905093353 58 297 14.0 0.0 0.00 0.00 0.00 64 1017.0
20260905092335 58 246 16.0 0.0 0.00 0.00 0.00 65 1015.9
20260905091343 58 232 12.0 0.0 0.00 0.00 0.00 65 1016.3
20260905090346 58 197 12.0 0.0 0.00 0.00 0.00 65 1017.4
20260905085326 59 194 14.0 0.0 0.00 0.00 0.00 64 1017.7
20260905084333 59 195 15.0 0.0 0.00 0.00 0.00 63 1016.6
20260905083356 59 195 18.0 0.0 0.00 0.00 0.00 64 1016.1
20260905082342 59 200 18.0 0.0 0.00 0.00 0.00 64 1016.1
20260905081345 59 194 17.0 0.0 0.00 0.00 0.00 65 1016.5
20260905080348 59 197 21.0 0.0 0.00 0.00 0.00 66 1015.8
20260905075334 59 9 20.0 0.0 0.00 0.00 0.00 66 1015.0
20260905074325 59 1 19.0 0.0 0.00 0.00 0.00 66 1015.1
20260905073331 59 353 16.0 0.0 0.00 0.00 0.00 66 1015.9
20260905072355 59 353 18.0 0.0 0.00 0.00 0.00 65 1014.9
20260905071341 60 322 18.0 0.0 0.00 0.00 0.00 64 1015.1
20260905070405 60 209 21.0 0.0 0.00 0.00 0.00 62 1014.9
20260905065331 61 24 20.0 0.0 0.00 0.00 0.00 59 1013.8
20260905064334 62 7 21.0 0.0 0.00 0.00 0.00 58 1013.9
20260905063341 63 9 22.0 0.0 0.00 0.00 0.00 57 1014.6
20260905062347 63 13 17.0 0.0 0.00 0.00 0.00 56 1014.6
20260905061333 63 20 16.0 0.0 0.00 0.00 0.00 55 1014.7
20260905060336 64 353 16.0 0.0 0.00 0.00 0.00 53 1014.4
20260905055340 64 26 14.0 0.0 0.00 0.00 0.00 53 1014.5
20260905054346 64 10 14.0 0.0 0.00 0.00 0.00 52 1014.4
20260905053328 65 21 12.0 0.0 0.00 0.00 0.00 51 1014.4
20260905052335 66 21 15.0 0.0 0.00 0.00 0.00 50 1014.1
20260905051338 66 17 13.0 0.0 0.00 0.00 0.00 49 1014.1
20260905050324 65 57 4.0 0.0 0.00 0.00 0.00 50 1014.5
20260905045330 63 127 2.0 0.0 0.00 0.00 0.00 50 1014.4
20260905044338 63 228 3.0 0.0 0.00 0.00 0.00 49 1014.5
20260905043344 65 181 2.0 0.0 0.00 0.00 0.00 46 1014.2
20260905042326 66 99 3.0 0.0 0.00 0.00 0.00 45 1014.7
20260905041330 63 340 6.0 0.0 0.00 0.00 0.00 49 1014.3
20260905040341 63 290 11.0 0.0 0.00 0.00 0.00 50 1014.4
20260905035344 64 284 11.0 0.0 0.00 0.00 0.00 48 1014.8
20260905034347 63 283 6.0 0.0 0.00 0.00 0.00 46 1014.0
20260905033349 63 282 7.0 0.0 0.00 0.00 0.00 44 1013.9
20260905032332 63 264 5.0 0.0 0.00 0.00 0.00 42 1014.0
20260905031359 65 297 6.0 0.0 0.00 0.00 0.00 40 1014.4
20260905030340 66 224 7.0 0.0 0.00 0.00 0.00 39 1014.0
20260905025342 67 215 7.0 0.0 0.00 0.00 0.00 37 1014.0
20260905024344 70 202 9.0 0.0 0.00 0.00 0.00 34 1014.2
20260905023347 70 219 10.0 0.0 0.00 0.00 0.00 34 1014.0
20260905022353 70 228 11.0 0.0 0.00 0.00 0.00 33 1013.9
20260905021336 71 230 11.0 0.0 0.00 0.00 0.00 33 1013.8
20260905020338 72 227 11.0 0.0 0.00 0.00 0.00 31 1013.4
20260905015402 74 223 11.0 0.0 0.00 0.00 0.00 30 1013.0
20260905014327 75 221 11.0 0.0 0.00 0.00 0.00 29 1013.5
20260905013355 76 219 13.0 0.0 0.00 0.00 0.00 28 1013.3
20260905012336 77 236 13.0 0.0 0.00 0.00 0.00 27 1013.0
20260905011340 78 213 15.0 0.0 0.00 0.00 0.00 26 1013.0
20260905010325 79 211 15.0 0.0 0.00 0.00 0.00 26 1012.5
20260905005351 80 204 16.0 0.0 0.00 0.00 0.00 25 1012.7
20260905004337 80 224 17.0 0.0 0.00 0.00 0.00 24 1012.6
20260905003340 81 205 16.0 0.0 0.00 0.00 0.00 25 1012.5
20260905002326 81 222 20.0 0.0 0.00 0.00 0.00 25 1012.4
20260905001329 81 215 19.0 0.0 0.00 0.00 0.00 24 1012.3
20260905000336 81 217 18.0 0.0 0.00 0.00 0.00 24 1012.3
20260904235338 82 234 17.0 0.0 0.00 0.00 0.00 24 1012.4
20260904234325 81 186 17.0 0.0 0.00 0.00 0.00 25 1011.8
20260904233328 82 192 17.0 0.0 0.00 0.00 0.00 25 1012.4
20260904232334 82 201 20.0 0.0 0.00 0.00 0.00 25 1012.6
20260904231327 82 206 19.0 0.0 0.00 0.00 0.00 26 1012.5
20260904230330 82 225 14.0 0.0 0.00 0.00 0.00 26 1012.7
20260904225334 80 198 6.0 0.0 0.00 0.00 0.00 30 1011.9
20260904224338 79 117 5.0 0.0 0.00 0.00 0.00 31 1012.0
20260904223344 79 176 7.0 0.0 0.00 0.00 0.00 31 1012.0
20260904222327 79 125 7.0 0.0 0.00 0.00 0.00 31 1011.9
20260904221331 79 165 7.0 0.0 0.00 0.00 0.00 31 1012.0
20260904220337 78 181 5.0 0.0 0.00 0.00 0.00 32 1011.9
20260904215328 78 120 4.0 0.0 0.00 0.00 0.00 30 1011.6
20260904214331 78 113 7.0 0.0 0.00 0.00 0.00 30 1011.6
20260904213333 78 92 5.0 0.0 0.00 0.00 0.00 30 1011.4
20260904212339 79 121 4.0 0.0 0.00 0.00 0.00 29 1011.5
20260904211327 80 123 2.0 0.0 0.00 0.00 0.00 28 1012.0
20260904210331 79 252 2.0 0.0 0.00 0.00 0.00 29 1011.5
20260904205335 78 85 2.0 0.0 0.00 0.00 0.00 30 1012.1
20260904204339 78 55 5.0 0.0 0.00 0.00 0.00 30 1012.1
20260904203327 79 305 7.0 0.0 0.00 0.00 0.00 30 1011.7
20260904202328 79 302 8.0 0.0 0.00 0.00 0.00 30 1011.7
20260904201330 79 348 7.0 0.0 0.00 0.00 0.00 31 1012.0
20260904200333 78 327 7.0 0.0 0.00 0.00 0.00 30 1012.0
20260904195320 78 329 11.0 0.0 0.00 0.00 0.00 30 1011.8
20260904194330 78 287 9.0 0.0 0.00 0.00 0.00 31 1011.7
20260904193336 77 331 11.0 0.0 0.00 0.00 0.00 31 1012.2
20260904192342 76 300 11.0 0.0 0.00 0.00 0.00 34 1012.0
20260904191330 76 327 10.0 0.0 0.00 0.00 0.00 33 1012.0
20260904190334 75 317 10.0 0.0 0.00 0.00 0.00 33 1011.5
20260904185337 77 348 9.0 0.0 0.00 0.00 0.00 32 1012.1
20260904184323 76 23 10.0 0.0 0.00 0.00 0.00 34 1012.3
20260904183333 75 322 9.0 0.0 0.00 0.00 0.00 33 1011.6
20260904182337 75 317 11.0 0.0 0.00 0.00 0.00 34 1011.5
20260904181400 75 329 12.0 0.0 0.00 0.00 0.00 33 1011.7
20260904180341 74 329 13.0 0.0 0.00 0.00 0.00 33 1011.8
20260904175323 74 336 12.0 0.0 0.00 0.00 0.00 36 1012.2
20260904174353 73 347 12.0 0.0 0.00 0.00 0.00 35 1012.2
20260904173336 73 331 13.0 0.0 0.00 0.00 0.00 36 1012.2
20260904172343 73 344 11.0 0.0 0.00 0.00 0.00 39 1012.1
20260904171326 72 330 11.0 0.0 0.00 0.00 0.00 38 1011.5
20260904170333 72 328 14.0 0.0 0.00 0.00 0.00 37 1011.5
20260904165335 73 330 17.0 0.0 0.00 0.00 0.00 35 1011.4
20260904164339 72 303 16.0 0.0 0.00 0.00 0.00 37 1011.6
20260904163405 70 297 14.0 0.0 0.00 0.00 0.00 43 1011.7
20260904162328 65 282 9.0 0.0 0.00 0.00 0.00 51 1011.7
20260904161338 58 288 7.0 0.0 0.00 0.00 0.00 57 1011.7
20260904160341 56 271 9.0 0.0 0.00 0.00 0.00 62 1011.1
20260904155325 54 192 11.0 0.0 0.00 0.00 0.00 66 1010.8
20260904154328 55 193 12.0 0.0 0.00 0.00 0.00 62 1011.2
20260904153338 61 300 11.0 0.0 0.00 0.00 0.00 50 1011.0
20260904152342 66 295 11.0 0.0 0.00 0.00 0.00 46 1009.9
20260904151328 64 200 2.0 0.0 0.00 0.00 0.00 51 1009.9
20260904150335 62 202 3.0 0.0 0.00 0.00 0.00 53 1010.2
20260904145341 61 306 2.0 0.0 0.00 0.00 0.00 57 1009.7
20260904144344 60 55 2.0 0.0 0.00 0.00 0.00 59 1009.6
20260904143327 58 296 3.0 0.0 0.00 0.00 0.00 64 1010.0
20260904142337 54 186 2.0 0.0 0.00 0.00 0.00 69 1009.4
20260904141325 51 169 1.0 0.0 0.00 0.00 0.00 69 1008.9
20260904140329 51 269 2.0 0.0 0.00 0.00 0.00 70 1008.2
20260904135356 50 283 4.0 0.0 0.00 0.00 0.00 72 1008.9
20260904134401 49 267 5.0 0.0 0.00 0.00 0.00 72 1009.1
20260904133327 49 273 4.0 0.0 0.00 0.00 0.00 72 1009.0
20260904132333 48 299 3.0 0.0 0.00 0.00 0.00 73 1008.9
20260904131343 47 267 6.0 0.0 0.00 0.00 0.00 72 1008.3
20260904130325 47 273 6.0 0.0 0.00 0.00 0.00 69 1007.9
20260904125332 49 295 6.0 0.0 0.00 0.00 0.00 66 1008.3
20260904124336 51 280 3.0 0.0 0.00 0.00 0.00 64 1007.8
20260904123334 51 275 6.0 0.0 0.00 0.00 0.00 65 1007.8
20260904122337 51 244 5.0 0.0 0.00 0.00 0.00 67 1007.5
20260904121340 50 244 9.0 0.0 0.00 0.00 0.00 67 1007.6
20260904120328 50 275 5.0 0.0 0.00 0.00 0.00 67 1007.5
20260904115342 50 246 3.0 0.0 0.00 0.00 0.00 66 1007.0
20260904114327 50 251 5.0 0.0 0.00 0.00 0.00 64 1007.0
20260904113334 51 269 5.0 0.0 0.00 0.00 0.00 64 1007.9
20260904112342 51 282 5.0 0.0 0.00 0.00 0.00 65 1007.9
20260904111325 51 252 8.0 0.0 0.00 0.00 0.00 67 1008.0
20260904110348 50 256 7.0 0.0 0.00 0.00 0.00 69 1007.5
20260904105334 52 283 8.0 0.0 0.00 0.00 0.00 66 1007.7
20260904104341 52 280 5.0 0.0 0.00 0.00 0.00 65 1007.7
20260904103404 53 284 6.0 0.0 0.00 0.00 0.00 63 1007.6
20260904102327 52 269 4.0 0.0 0.00 0.00 0.00 63 1008.0
20260904101332 53 284 3.0 0.0 0.00 0.00 0.00 62 1007.6
20260904100335 52 225 4.0 0.0 0.00 0.00 0.00 62 1007.9
20260904095342 52 203 4.0 0.0 0.00 0.00 0.00 63 1007.4
20260904094405 52 255 3.0 0.0 0.00 0.00 0.00 63 1007.3